Location: Trondheim
(63.4170°N, 10.4170°E)
Time: 10:43:32
(UTC+02:00)

Iridium 82 - Visible Passes

Search period start: 25 October 2014 00:00
Search period end: 03 November 2014 23:00
Orbit: 776 x 779 km, 86.4° (Epoch: 24 October)

Date Brightness Start Highest point End Pass type
(mag) Time Alt. Az. Time Alt. Az. Time Alt. Az.
25 Oct 8.3 01:06:17 10° ENE 01:06:17 10° ENE 01:07:06 10° NE visible
25 Oct 7.1 02:46:46 31° NE 02:46:46 31° NE 02:50:17 10° NNE visible
25 Oct 6.0 04:27:15 49° NNW 04:27:15 49° NNW 04:31:18 10° N visible
25 Oct 6.9 06:07:44 20° NW 06:07:56 20° NW 06:11:42 10° N visible
26 Oct 7.6 02:13:33 23° NE 02:13:33 23° NE 02:16:30 10° NNE visible
26 Oct 6.3 02:54:02 47° N 02:54:02 47° N 02:57:45 10° N visible
26 Oct 6.7 04:34:32 26° NW 04:34:32 26° NW 04:38:20 10° N visible
27 Oct 7.9 00:40:20 17° NE 00:40:20 17° NE 00:42:34 10° NNE visible
27 Oct 6.7 02:20:49 39° NNE 02:20:49 39° NNE 02:24:08 10° N visible
27 Oct 6.6 04:01:18 32° NW 04:01:18 32° NW 04:04:53 10° N visible
27 Oct 7.4 05:41:47 12° NW 05:42:29 13° NW 05:44:43 10° NNW visible
28 Oct 8.2 00:07:06 12° NE 00:07:06 12° NE 00:08:17 10° NE visible
28 Oct 7.2 01:47:34 30° NE 01:47:34 30° NE 01:50:28 10° NNE visible
28 Oct 6.5 03:28:03 36° NNW 03:28:03 36° NNW 03:31:24 10° N visible
28 Oct 7.2 05:08:32 17° NW 05:08:32 17° NW 05:11:38 10° N visible
29 Oct 7.6 01:14:19 23° NE 01:14:19 23° NE 01:16:44 10° NNE visible
29 Oct 6.7 02:54:48 35° N 02:54:48 35° N 02:57:51 10° N visible
29 Oct 7.0 04:35:17 21° NW 04:35:17 21° NW 04:38:19 10° N visible
30 Oct 8.0 00:41:03 18° NE 00:41:03 18° NE 00:42:54 10° NNE visible
30 Oct 7.1 02:21:32 32° NNE 02:21:32 32° NNE 02:24:15 10° N visible
30 Oct 7.0 04:02:00 25° NNW 04:02:00 25° NNW 04:04:55 10° N visible
30 Oct 7.6 05:42:29 11° NW 05:42:57 11° NW 05:44:08 10° NNW visible
31 Oct 8.2 00:07:46 13° NE 00:07:46 13° NE 00:08:51 10° NNE visible
31 Oct 7.4 01:48:15 27° NNE 01:48:15 27° NNE 01:50:37 10° NNE visible
31 Oct 7.0 03:28:43 27° NNW 03:28:43 27° NNW 03:31:26 10° N visible
31 Oct 7.4 05:09:12 14° NW 05:09:12 14° NW 05:11:28 10° NNW visible
01 Nov 7.7 01:14:57 22° NNE 01:14:57 22° NNE 01:16:55 10° NNE visible
01 Nov 7.1 02:55:25 28° N 02:55:25 28° N 02:57:54 10° N visible
01 Nov 7.3 04:35:54 17° NNW 04:35:54 17° NNW 04:38:15 10° N visible
02 Nov 8.0 00:41:38 17° NNE 00:41:38 17° NNE 00:43:08 10° NNE visible
02 Nov 7.3 02:22:07 26° N 02:22:07 26° N 02:24:20 10° N visible
02 Nov 7.3 04:02:36 20° NNW 04:02:36 20° NNW 04:04:53 10° N visible
03 Nov 8.2 00:08:19 13° NNE 00:08:19 13° NNE 00:09:13 10° NNE visible
03 Nov 7.6 01:48:48 23° NNE 01:48:48 23° NNE 01:50:43 10° N visible
03 Nov 7.3 03:29:16 22° NNW 03:29:16 22° NNW 03:31:26 10° N visible
03 Nov 7.6 05:09:45 12° NNW 05:09:45 12° NNW 05:11:06 10° NNW visible
